| time (UTC) | temp C | wind direction | speed KPH | gust KPH | rain 1hr cm | rain 24hr cm | rain mn cm | humidity % | barometer mb |
| 20260506070534 | 12 | 207 | 4.8 | 9.7 | 0.00 | 0.00 | 0.00 | 98 | 1007.1 |
| 20260506062036 | 12 | 183 | 3.2 | 6.4 | 0.00 | 0.00 | 0.00 | 99 | 1007.1 |
| 20260506061313 | 12 | 210 | 4.8 | 6.4 | 0.00 | 0.00 | 0.00 | 99 | 1007.3 |
| 20260506061033 | 12 | 185 | 3.2 | 8.0 | 0.00 | 0.00 | 0.00 | 99 | 1007.1 |
| 20260506051315 | 11 | 259 | 3.2 | 6.4 | 0.00 | 0.00 | 0.00 | 99 | 1007.2 |
| 20260506050810 | 11 | 283 | 6.4 | 6.4 | 0.00 | 0.00 | 0.00 | 99 | 1007.5 |
| 20260506044811 | 11 | 321 | 3.2 | 6.4 | 0.00 | 0.00 | 0.00 | 99 | 1007.8 |
| 20260506044312 | 11 | 287 | 3.2 | 6.4 | 0.00 | 0.00 | 0.00 | 99 | 1007.9 |
| 20260506044038 | 11 | 268 | 3.2 | 8.0 | 0.00 | 0.00 | 0.00 | 99 | 1007.6 |
| 20260506043529 | 11 | 275 | 3.2 | 8.0 | 0.00 | 0.00 | 0.00 | 99 | 1007.9 |
| 20260506042811 | 11 | 312 | 4.8 | 6.4 | 0.00 | 0.03 | 0.00 | 99 | 1007.5 |
| 20260506042315 | 11 | 276 | 1.6 | 6.4 | 0.00 | 0.03 | 0.00 | 99 | 1007.9 |
| 20260506041811 | 11 | 129 | 1.6 | 6.4 | 0.00 | 0.03 | 0.00 | 99 | 1007.9 |
| 20260506041312 | 11 | 268 | 1.6 | 6.4 | 0.00 | 0.05 | 0.00 | 99 | 1007.9 |
| 20260506041032 | 11 | 333 | 1.6 | 6.4 | 0.00 | 0.05 | 0.00 | 99 | 1007.8 |
| 20260506040530 | 11 | 246 | 6.4 | 6.4 | 0.00 | 0.05 | 0.00 | 99 | 1008.0 |
| 20260506040039 | 11 | 70 | 0.0 | 6.4 | 0.00 | 0.05 | 0.00 | 99 | 1007.9 |
| 20260506034312 | 11 | 202 | 1.6 | 6.4 | 0.00 | 0.05 | 0.00 | 99 | 1008.0 |
| 20260506034032 | 11 | 296 | 3.2 | 6.4 | 0.00 | 0.05 | 0.00 | 99 | 1007.8 |
| 20260506033312 | 11 | 2 | 1.6 | 6.4 | 0.00 | 0.05 | 0.00 | 99 | 1008.2 |
| 20260506032810 | 11 | 326 | 3.2 | 6.4 | 0.00 | 0.05 | 0.00 | 99 | 1008.0 |
| 20260506032315 | 11 | 269 | 3.2 | 6.4 | 0.00 | 0.05 | 0.00 | 99 | 1008.1 |
| 20260506031814 | 11 | 254 | 0.0 | 6.4 | 0.00 | 0.05 | 0.00 | 99 | 1008.3 |
| 20260506031312 | 11 | 174 | 3.2 | 6.4 | 0.00 | 0.05 | 0.00 | 99 | 1008.1 |
| 20260506030811 | 11 | 245 | 3.2 | 4.8 | 0.00 | 0.05 | 0.00 | 99 | 1008.4 |
| 20260506030312 | 11 | 275 | 3.2 | 6.4 | 0.00 | 0.05 | 0.00 | 99 | 1008.5 |
| 20260506025811 | 11 | 269 | 3.2 | 6.4 | 0.00 | 0.05 | 0.00 | 99 | 1008.7 |
| 20260506025312 | 11 | 256 | 4.8 | 6.4 | 0.00 | 0.05 | 0.00 | 99 | 1008.7 |
| 20260506024810 | 11 | 282 | 3.2 | 4.8 | 0.00 | 0.05 | 0.00 | 99 | 1008.9 |
| 20260506024312 | 11 | 299 | 3.2 | 4.8 | 0.00 | 0.05 | 0.00 | 99 | 1009.0 |
| 20260506023811 | 11 | 269 | 0.0 | 4.8 | 0.00 | 0.05 | 0.00 | 99 | 1009.0 |
| 20260506023312 | 11 | 317 | 1.6 | 4.8 | 0.00 | 0.05 | 0.00 | 99 | 1009.1 |
| 20260506023028 | 11 | 244 | 3.2 | 6.4 | 0.00 | 0.05 | 0.00 | 99 | 1009.0 |
| 20260506022312 | 11 | 262 | 3.2 | 6.4 | 0.00 | 0.05 | 0.00 | 99 | 1009.3 |
| 20260506021814 | 11 | 304 | 3.2 | 6.4 | 0.00 | 0.05 | 0.00 | 99 | 1009.4 |
| 20260506021532 | 11 | 236 | 1.6 | 6.4 | 0.00 | 0.05 | 0.00 | 99 | 1009.3 |
| 20260506021036 | 11 | 288 | 3.2 | 6.4 | 0.00 | 0.05 | 0.00 | 99 | 1009.2 |
| 20260506020312 | 11 | 251 | 3.2 | 4.8 | 0.00 | 0.05 | 0.00 | 99 | 1009.2 |
| 20260506015312 | 11 | 281 | 3.2 | 4.8 | 0.00 | 0.05 | 0.00 | 99 | 1009.2 |
| 20260506014811 | 11 | 289 | 3.2 | 4.8 | 0.00 | 0.05 | 0.00 | 99 | 1009.4 |
| 20260506014312 | 11 | 275 | 3.2 | 4.8 | 0.00 | 0.05 | 0.00 | 99 | 1009.4 |
| 20260506014032 | 11 | 264 | 3.2 | 4.8 | 0.00 | 0.05 | 0.00 | 99 | 1009.4 |
| 20260506013312 | 11 | 237 | 3.2 | 4.8 | 0.00 | 0.05 | 0.00 | 99 | 1009.3 |
| 20260506012532 | 11 | 263 | 3.2 | 6.4 | 0.00 | 0.05 | 0.00 | 99 | 1009.2 |
| 20260506011312 | 11 | 267 | 3.2 | 4.8 | 0.00 | 0.05 | 0.00 | 99 | 1009.6 |
| 20260506010811 | 11 | 281 | 3.2 | 4.8 | 0.00 | 0.05 | 0.00 | 99 | 1009.6 |
| 20260506005312 | 11 | 259 | 3.2 | 6.4 | 0.00 | 0.05 | 0.00 | 99 | 1009.9 |
| 20260506004811 | 11 | 246 | 1.6 | 6.4 | 0.00 | 0.05 | 0.00 | 99 | 1010.0 |
| 20260506004312 | 11 | 242 | 0.0 | 4.8 | 0.00 | 0.05 | 0.00 | 99 | 1009.9 |
| 20260506004036 | 11 | 283 | 3.2 | 4.8 | 0.00 | 0.05 | 0.00 | 99 | 1010.2 |
| 20260506003312 | 11 | 260 | 0.0 | 4.8 | 0.00 | 0.05 | 0.00 | 99 | 1010.2 |
| 20260506003037 | 11 | 255 | 3.2 | 4.8 | 0.00 | 0.05 | 0.00 | 99 | 1010.1 |
| 20260506001811 | 11 | 254 | 3.2 | 6.4 | 0.00 | 0.05 | 0.00 | 99 | 1010.1 |
| 20260506001313 | 11 | 269 | 3.2 | 6.4 | 0.00 | 0.05 | 0.00 | 99 | 1010.3 |
| 20260506000539 | 11 | 276 | 3.2 | 4.8 | 0.00 | 0.05 | 0.00 | 99 | 1010.2 |
| 20260505235532 | 11 | 268 | 3.2 | 6.4 | 0.00 | 0.05 | 0.00 | 99 | 1010.2 |
| 20260505234813 | 11 | 240 | 1.6 | 6.4 | 0.00 | 0.05 | 0.00 | 99 | 1010.3 |
| 20260505234316 | 11 | 316 | 0.0 | 6.4 | 0.00 | 0.05 | 0.00 | 99 | 1010.4 |
| 20260505233809 | 11 | 204 | 3.2 | 6.4 | 0.00 | 0.05 | 0.00 | 99 | 1010.5 |
| 20260505233536 | 11 | 286 | 1.6 | 6.4 | 0.00 | 0.05 | 0.00 | 99 | 1010.4 |
| 20260505232311 | 11 | 299 | 3.2 | 4.8 | 0.00 | 0.05 | 0.00 | 99 | 1010.5 |
| 20260505231809 | 11 | 279 | 1.6 | 3.2 | 0.00 | 0.05 | 0.00 | 99 | 1010.5 |
| 20260505231311 | 11 | 275 | 0.0 | 3.2 | 0.00 | 0.05 | 0.00 | 99 | 1010.6 |
| 20260505231032 | 11 | 256 | 0.0 | 3.2 | 0.00 | 0.05 | 0.00 | 99 | 1010.6 |
| 20260505230311 | 11 | 267 | 0.0 | 3.2 | 0.00 | 0.05 | 0.00 | 99 | 1010.8 |
| 20260505230031 | 11 | 272 | 1.6 | 4.8 | 0.00 | 0.05 | 0.00 | 99 | 1010.9 |
| 20260505225534 | 11 | 290 | 3.2 | 6.4 | 0.00 | 0.05 | 0.00 | 99 | 1010.9 |
| 20260505224810 | 11 | 315 | 1.6 | 6.4 | 0.00 | 0.05 | 0.00 | 99 | 1010.9 |
| 20260505224311 | 11 | 280 | 1.6 | 6.4 | 0.00 | 0.05 | 0.00 | 99 | 1011.1 |
| 20260505223810 | 11 | 279 | 1.6 | 4.8 | 0.00 | 0.05 | 0.00 | 99 | 1010.9 |
| 20260505223530 | 11 | 249 | 1.6 | 4.8 | 0.00 | 0.05 | 0.00 | 99 | 1010.9 |
| 20260505223035 | 11 | 282 | 0.0 | 6.4 | 0.00 | 0.05 | 0.00 | 99 | 1011.1 |
| 20260505222530 | 11 | 285 | 1.6 | 6.4 | 0.00 | 0.05 | 0.00 | 99 | 1011.1 |
| 20260505221813 | 11 | 245 | 0.0 | 6.4 | 0.00 | 0.05 | 0.00 | 99 | 1010.9 |
| 20260505215810 | 11 | 240 | 0.0 | 4.8 | 0.00 | 0.05 | 0.05 | 99 | 1011.0 |
| 20260505215540 | 11 | 204 | 1.6 | 4.8 | 0.00 | 0.05 | 0.05 | 99 | 1011.1 |
| 20260505215031 | 11 | 250 | 3.2 | 4.8 | 0.00 | 0.05 | 0.05 | 99 | 1011.2 |
| 20260505213809 | 11 | 278 | 1.6 | 4.8 | 0.00 | 0.05 | 0.05 | 99 | 1011.2 |
| 20260505213312 | 11 | 261 | 3.2 | 4.8 | 0.00 | 0.05 | 0.05 | 99 | 1011.4 |
| 20260505212813 | 11 | 262 | 0.0 | 4.8 | 0.00 | 0.05 | 0.05 | 99 | 1011.6 |
| 20260505212532 | 11 | 275 | 3.2 | 4.8 | 0.00 | 0.05 | 0.05 | 99 | 1011.5 |
| 20260505212041 | 11 | 259 | 3.2 | 4.8 | 0.00 | 0.05 | 0.05 | 99 | 1011.6 |
| 20260505211534 | 11 | 246 | 3.2 | 4.8 | 0.00 | 0.05 | 0.05 | 99 | 1011.9 |
| 20260505211035 | 11 | 102 | 0.0 | 4.8 | 0.00 | 0.05 | 0.05 | 99 | 1011.8 |
| 20260505210312 | 11 | 98 | 0.0 | 4.8 | 0.00 | 0.05 | 0.05 | 99 | 1011.7 |
| 20260505205809 | 11 | 261 | 0.0 | 6.4 | 0.00 | 0.05 | 0.05 | 99 | 1011.7 |
| 20260505205541 | 11 | 274 | 1.6 | 6.4 | 0.00 | 0.05 | 0.05 | 99 | 1011.5 |
| 20260505205037 | 11 | 212 | 0.0 | 4.8 | 0.00 | 0.05 | 0.05 | 99 | 1011.8 |
| 20260505204311 | 11 | 267 | 1.6 | 4.8 | 0.00 | 0.05 | 0.05 | 99 | 1011.7 |
| 20260505203810 | 11 | 285 | 0.0 | 4.8 | 0.00 | 0.05 | 0.05 | 99 | 1011.8 |
| 20260505202810 | 11 | 267 | 1.6 | 4.8 | 0.00 | 0.05 | 0.05 | 99 | 1011.8 |
| 20260505201810 | 11 | 252 | 0.0 | 8.0 | 0.00 | 0.05 | 0.05 | 99 | 1012.0 |
| 20260505201536 | 11 | 253 | 4.8 | 8.0 | 0.00 | 0.05 | 0.05 | 99 | 1011.8 |
| 20260505201031 | 11 | 257 | 3.2 | 6.4 | 0.00 | 0.05 | 0.05 | 99 | 1011.8 |
| 20260505200312 | 11 | 228 | 3.2 | 6.4 | 0.00 | 0.05 | 0.05 | 99 | 1011.9 |
| 20260505195813 | 11 | 333 | 3.2 | 4.8 | 0.00 | 0.05 | 0.05 | 99 | 1011.9 |
| 20260505195536 | 11 | 276 | 3.2 | 4.8 | 0.00 | 0.05 | 0.05 | 99 | 1011.8 |
| 20260505194811 | 11 | 269 | 3.2 | 4.8 | 0.00 | 0.05 | 0.05 | 99 | 1011.7 |
| 20260505194535 | 11 | 238 | 3.2 | 4.8 | 0.00 | 0.05 | 0.05 | 99 | 1011.6 |
| 20260505193810 | 11 | 310 | 3.2 | 4.8 | 0.00 | 0.05 | 0.05 | 99 | 1011.4 |
| 20260505193314 | 11 | 295 | 3.2 | 4.8 | 0.00 | 0.05 | 0.05 | 99 | 1011.6 |
| 20260505192315 | 11 | 276 | 3.2 | 4.8 | 0.00 | 0.05 | 0.05 | 99 | 1011.5 |
| 20260505191813 | 11 | 250 | 1.6 | 4.8 | 0.00 | 0.05 | 0.05 | 99 | 1011.6 |
| 20260505191311 | 11 | 230 | 3.2 | 4.8 | 0.00 | 0.05 | 0.05 | 99 | 1011.4 |
| 20260505190810 | 11 | 288 | 1.6 | 4.8 | 0.00 | 0.05 | 0.05 | 99 | 1011.6 |
| 20260505190536 | 11 | 250 | 0.0 | 4.8 | 0.00 | 0.05 | 0.05 | 99 | 1011.5 |
| 20260505185809 | 11 | 231 | 3.2 | 4.8 | 0.00 | 0.05 | 0.05 | 99 | 1011.4 |
| 20260505185539 | 11 | 279 | 3.2 | 4.8 | 0.00 | 0.05 | 0.05 | 99 | 1011.2 |
| 20260505184809 | 11 | 246 | 3.2 | 4.8 | 0.00 | 0.05 | 0.05 | 99 | 1011.4 |
| 20260505184533 | 11 | 271 | 3.2 | 4.8 | 0.00 | 0.05 | 0.05 | 99 | 1011.6 |
| 20260505183809 | 11 | 252 | 3.2 | 4.8 | 0.00 | 0.05 | 0.05 | 99 | 1011.5 |
| 20260505183314 | 11 | 252 | 3.2 | 4.8 | 0.00 | 0.05 | 0.05 | 99 | 1011.4 |
| 20260505182314 | 11 | 250 | 0.0 | 4.8 | 0.00 | 0.05 | 0.05 | 99 | 1011.4 |
| 20260505181810 | 11 | 265 | 1.6 | 4.8 | 0.00 | 0.05 | 0.05 | 99 | 1011.1 |
| 20260505181314 | 11 | 242 | 3.2 | 4.8 | 0.00 | 0.05 | 0.05 | 99 | 1011.5 |
| 20260505180809 | 11 | 267 | 0.0 | 4.8 | 0.00 | 0.05 | 0.05 | 99 | 1011.2 |
| 20260505180314 | 11 | 283 | 0.0 | 4.8 | 0.00 | 0.05 | 0.05 | 99 | 1011.2 |
| 20260505175810 | 11 | 232 | 3.2 | 4.8 | 0.00 | 0.05 | 0.05 | 99 | 1011.1 |
| 20260505175531 | 11 | 287 | 3.2 | 4.8 | 0.00 | 0.05 | 0.05 | 99 | 1011.4 |
| 20260505173810 | 11 | 227 | 3.2 | 4.8 | 0.00 | 0.05 | 0.05 | 99 | 1011.4 |
| 20260505173533 | 11 | 205 | 3.2 | 6.4 | 0.00 | 0.05 | 0.05 | 99 | 1011.4 |
| 20260505173029 | 11 | 201 | 3.2 | 6.4 | 0.00 | 0.05 | 0.05 | 99 | 1011.6 |
| 20260505171312 | 11 | 224 | 3.2 | 4.8 | 0.00 | 0.05 | 0.05 | 99 | 1011.5 |
| 20260505170809 | 11 | 232 | 3.2 | 6.4 | 0.00 | 0.05 | 0.05 | 99 | 1011.5 |
| 20260505170544 | 11 | 259 | 0.0 | 6.4 | 0.00 | 0.05 | 0.05 | 99 | 1011.6 |
| 20260505165813 | 11 | 237 | 3.2 | 4.8 | 0.00 | 0.05 | 0.05 | 99 | 1011.6 |
| 20260505165312 | 11 | 249 | 4.8 | 4.8 | 0.00 | 0.05 | 0.05 | 99 | 1011.6 |
| 20260505165038 | 11 | 249 | 3.2 | 4.8 | 0.00 | 0.05 | 0.05 | 99 | 1011.7 |
| 20260505164311 | 11 | 275 | 0.0 | 6.4 | 0.00 | 0.05 | 0.05 | 99 | 1011.6 |
| 20260505163810 | 11 | 257 | 0.0 | 6.4 | 0.00 | 0.05 | 0.05 | 99 | 1011.5 |
| 20260505163537 | 11 | 222 | 1.6 | 4.8 | 0.00 | 0.05 | 0.05 | 99 | 1011.5 |
| 20260505162311 | 11 | 322 | 3.2 | 4.8 | 0.00 | 0.05 | 0.05 | 99 | 1011.8 |
| 20260505161809 | 11 | 214 | 3.2 | 6.4 | 0.00 | 0.05 | 0.05 | 99 | 1011.7 |
| 20260505161311 | 11 | 203 | 3.2 | 6.4 | 0.00 | 0.05 | 0.05 | 99 | 1011.7 |
| 20260505160809 | 11 | 213 | 1.6 | 6.4 | 0.00 | 0.05 | 0.05 | 99 | 1011.7 |
| 20260505153037 | 11 | 201 | 3.2 | 4.8 | 0.00 | 0.05 | 0.05 | 99 | 1011.9 |
| 20260505152311 | 12 | 188 | 3.2 | 3.2 | 0.00 | 0.05 | 0.05 | 99 | 1011.9 |
| 20260505152036 | 12 | 233 | 1.6 | 3.2 | 0.00 | 0.05 | 0.05 | 99 | 1011.9 |
| 20260505151314 | 12 | 252 | 0.0 | 4.8 | 0.00 | 0.05 | 0.05 | 99 | 1012.1 |
| 20260505150311 | 11 | 197 | 3.2 | 3.2 | 0.00 | 0.05 | 0.05 | 99 | 1012.1 |
| 20260505130312 | 12 | 227 | 3.2 | 6.4 | 0.00 | 0.05 | 0.05 | 97 | 1012.6 |
| 20260505125029 | 12 | 287 | 3.2 | 4.8 | 0.00 | 0.05 | 0.05 | 97 | 1012.5 |
| 20260505124315 | 12 | 269 | 0.0 | 4.8 | 0.00 | 0.05 | 0.05 | 97 | 1012.2 |
| 20260505123311 | 12 | 230 | 0.0 | 6.4 | 0.00 | 0.05 | 0.05 | 97 | 1012.3 |
| 20260505122810 | 12 | 198 | 0.0 | 6.4 | 0.00 | 0.05 | 0.05 | 96 | 1012.5 |
| 20260505121811 | 12 | 269 | 0.0 | 4.8 | 0.00 | 0.05 | 0.05 | 96 | 1012.3 |
| 20260505121310 | 12 | 207 | 1.6 | 4.8 | 0.00 | 0.05 | 0.05 | 96 | 1012.3 |
| 20260505121041 | 12 | 230 | 3.2 | 4.8 | 0.00 | 0.05 | 0.05 | 96 | 1012.4 |
| 20260505115809 | 12 | 106 | 1.6 | 4.8 | 0.00 | 0.05 | 0.05 | 96 | 1012.6 |
| 20260505115310 | 12 | 240 | 0.0 | 6.4 | 0.00 | 0.05 | 0.05 | 96 | 1012.5 |
| 20260505114538 | 12 | 282 | 0.0 | 4.8 | 0.00 | 0.05 | 0.05 | 96 | 1012.6 |
| 20260505113809 | 12 | 215 | 1.6 | 4.8 | 0.00 | 0.05 | 0.05 | 96 | 1012.7 |
| 20260505113313 | 12 | 10 | 3.2 | 4.8 | 0.00 | 0.05 | 0.05 | 96 | 1012.5 |
| 20260505112311 | 12 | 308 | 0.0 | 4.8 | 0.00 | 0.05 | 0.05 | 96 | 1012.7 |
| 20260505110809 | 12 | 260 | 3.2 | 6.4 | 0.00 | 0.05 | 0.05 | 95 | 1012.6 |
| 20260505110309 | 12 | 285 | 3.2 | 6.4 | 0.00 | 0.05 | 0.05 | 94 | 1012.8 |
| 20260505101809 | 13 | 247 | 0.0 | 3.2 | 0.00 | 0.05 | 0.05 | 94 | 1012.9 |
| 20260505101532 | 12 | 309 | 3.2 | 4.8 | 0.00 | 0.05 | 0.05 | 94 | 1012.7 |
| 20260505100314 | 12 | 267 | 1.6 | 6.4 | 0.00 | 0.05 | 0.05 | 94 | 1012.9 |
| 20260505100030 | 12 | 240 | 3.2 | 6.4 | 0.00 | 0.05 | 0.05 | 94 | 1012.8 |
| 20260505095529 | 12 | 247 | 3.2 | 6.4 | 0.00 | 0.05 | 0.05 | 93 | 1012.9 |
| 20260505094533 | 12 | 275 | 1.6 | 4.8 | 0.00 | 0.05 | 0.05 | 95 | 1012.9 |
| 20260505092809 | 12 | 227 | 1.6 | 6.4 | 0.00 | 0.05 | 0.05 | 95 | 1012.8 |
| 20260505092310 | 12 | 275 | 3.2 | 6.4 | 0.00 | 0.05 | 0.05 | 95 | 1012.8 |
| 20260505092025 | 12 | 243 | 3.2 | 4.8 | 0.00 | 0.05 | 0.05 | 96 | 1012.8 |
| 20260505091032 | 12 | 268 | 1.6 | 6.4 | 0.00 | 0.05 | 0.05 | 96 | 1012.5 |
| 20260505090527 | 12 | 108 | 1.6 | 6.4 | 0.00 | 0.05 | 0.05 | 96 | 1012.6 |
| 20260505085811 | 11 | 245 | 3.2 | 6.4 | 0.00 | 0.05 | 0.05 | 96 | 1012.6 |
| 20260505085536 | 11 | 274 | 3.2 | 6.4 | 0.00 | 0.05 | 0.05 | 96 | 1012.7 |
| 20260505084310 | 11 | 290 | 1.6 | 8.0 | 0.00 | 0.05 | 0.05 | 96 | 1012.5 |
| 20260505083809 | 11 | 292 | 4.8 | 8.0 | 0.00 | 0.05 | 0.05 | 96 | 1012.7 |
| 20260505083312 | 11 | 314 | 0.0 | 6.4 | 0.00 | 0.05 | 0.05 | 96 | 1012.5 |
| 20260505082808 | 11 | 297 | 3.2 | 6.4 | 0.00 | 0.05 | 0.05 | 97 | 1012.3 |
| 20260505082537 | 11 | 277 | 4.8 | 6.4 | 0.00 | 0.05 | 0.05 | 96 | 1012.5 |
| 20260505081809 | 11 | 236 | 1.6 | 12.9 | 0.00 | 0.05 | 0.05 | 96 | 1012.4 |
| 20260505081310 | 11 | 322 | 3.2 | 12.9 | 0.00 | 0.05 | 0.05 | 96 | 1012.3 |
| 20260505080812 | 11 | 283 | 3.2 | 9.7 | 0.00 | 0.05 | 0.05 | 96 | 1012.6 |
| 20260505080314 | 11 | 324 | 4.8 | 11.3 | 0.00 | 0.05 | 0.05 | 96 | 1012.4 |
| 20260505075809 | 11 | 325 | 8.0 | 11.3 | 0.00 | 0.05 | 0.05 | 97 | 1012.3 |
| 20260505075310 | 11 | 327 | 4.8 | 8.0 | 0.00 | 0.05 | 0.05 | 97 | 1012.6 |
| 20260505075032 | 11 | 322 | 3.2 | 8.0 | 0.00 | 0.05 | 0.05 | 97 | 1012.5 |
| 20260505074532 | 11 | 297 | 3.2 | 9.7 | 0.00 | 0.05 | 0.05 | 97 | 1012.5 |
| 20260505073809 | 11 | 292 | 3.2 | 9.7 | 0.00 | 0.05 | 0.05 | 98 | 1012.5 |
| 20260505073026 | 11 | 60 | 0.0 | 6.4 | 0.00 | 0.05 | 0.05 | 98 | 1012.8 |
| 20260505072538 | 11 | 170 | 4.8 | 6.4 | 0.00 | 0.05 | 0.05 | 98 | 1012.9 |
| 20260505071310 | 11 | 124 | 0.0 | 6.4 | 0.00 | 0.05 | 0.05 | 97 | 1012.8 |
| 20260505070809 | 11 | 217 | 3.2 | 6.4 | 0.00 | 0.05 | 0.05 | 97 | 1012.7 |